Tracking 27401 objects as of 3-Jun-2023
HD Live streaming from Space Station
objects crossing your sky now

THOR ABLESTAR DEB

Track THOR ABLESTAR DEB now!
10-day predictions


NORAD ID: 541
Int'l Code: 1961-015GA
Perigee: 900.3 km
Apogee: 1,004.5 km
Inclination: 67.2 °
Period: 104.0 minutes
Semi major axis: 7323 km
RCS: 0.0369 m2 (small)
Launch date: June 29, 1961
Source: United States (US)
Launch site: AIR FORCE EASTERN TEST RANGE (AFETR)

Note: This is SATELLITE DEBRIS
Your satellite tracking list
Your tracking list is empty




NASA's NSSDC Master Catalog

Two Line Element Set (TLE):
1 00541U 61015GA  23153.43329107  .00000240  00000-0  26966-3 0  9994
2 00541  67.2174 167.2548 0071149  49.1723 311.5496 13.85269036118417
Source of the keplerian elements: AFSPC